Home   Weather   Honolulu   Past weeks

Flag for USA Past Weather in Honolulu, Hawaii, USA — Yesterday and Last 2 Weeks

Now
75 °F

Broken clouds.


Feels Like: 77 °F
Forecast: 70 / 76 °F
Wind: 12 mph from Northeast

Location: Honolulu International Airport

Current Time: Feb 21, 2017 at 12:05:07 pm

Latest Report: Feb 21, 2017 at 10:53 am


Visibility: 10 mi

Pressure: 30.27 "Hg

Humidity: 60%

Dew Point: 60 °F

Location of HonoluluLocation

Past Weather in Honolulu — Graph

°F

Honolulu Temperature Yesterday

Maximum temperature yesterday: 79 °F (at 12:53 pm)
Minimum temperature yesterday: 69 °F (at 4:53 am)
Average temperature yesterday: 73 °F

High & Low Weather Summary for the Past Weeks

 TemperatureHumidityPressure
High84 °F (Feb 16, 1:53 pm)94% (Feb 6, 12:46 pm)30.27 "Hg (Feb 6, 12:46 pm)
Low62 °F (Feb 8, 5:53 am)41% (Feb 7, 1:53 pm)29.73 "Hg (Feb 6, 2:53 pm)
Average74 °F71%30.00 "Hg
* Reported Feb 6 10:53 am — Feb 21 10:53 am, Honolulu, Weather by CustomWeather, © 2017

Note: Actual official high and low records may vary slightly from our data, if they occured in-between our weather recording intervals... More about our weather records

Advertising

Honolulu Weather History for the Previous 24 Hours

Scroll right to see more
 ConditionsComfort  
Time TempWeatherWind HumidityBarometerVisibility
10:53 am
Tue, Feb 21
75 °FBroken clouds.12 mph60%30.27 "Hg10 mi
9:53 am71 °FLight rain. Partly sunny.9 mph71%30.27 "Hg6 mi
8:53 am73 °FBroken clouds.12 mph59%30.24 "Hg10 mi
7:53 am72 °FScattered clouds.21 mph61%30.23 "Hg10 mi
6:53 am69 °FPartly cloudy.6 mph70%30.23 "Hg10 mi
5:53 am71 °FPassing clouds.9 mph59%30.22 "Hg10 mi
4:53 am72 °FPassing clouds.13 mph59%30.20 "Hg10 mi
3:53 am71 °FPassing clouds.15 mph63%30.18 "Hg10 mi
2:53 am71 °FPassing clouds.13 mph63%30.19 "Hg10 mi
1:53 am71 °FPassing clouds.13 mph63%30.21 "Hg10 mi
12:53 am71 °FPassing clouds.9 mph61%30.22 "Hg10 mi
11:53 pm
Mon, Feb 20
72 °FPassing clouds.15 mph59%30.23 "Hg10 mi
10:53 pm72 °FPassing clouds.20 mph59%30.23 "Hg10 mi
9:53 pm72 °FPassing clouds.16 mph61%30.24 "Hg10 mi
8:53 pm72 °FPassing clouds.13 mph57%30.24 "Hg10 mi
7:53 pm72 °FPassing clouds.13 mph57%30.22 "Hg10 mi
6:53 pm73 °FPassing clouds.15 mph57%30.19 "Hg10 mi
5:53 pm75 °FBroken clouds.17 mph55%30.17 "Hg10 mi
4:53 pm76 °FScattered clouds.22 mph52%30.16 "Hg10 mi
3:53 pm78 °FScattered clouds.26 mph45%30.14 "Hg10 mi
2:53 pm78 °FScattered clouds.23 mph43%30.15 "Hg10 mi
1:53 pm79 °FScattered clouds.23 mph44%30.15 "Hg10 mi
12:53 pm79 °FPassing clouds.18 mph44%30.18 "Hg10 mi
Weather by CustomWeather, © 2017

See weather overviewHow to use our weather pages